Location: Kutna Hora
(49.9500°N, 15.2670°E)
Time: 22:42:59
(UTC+02:00)

ISS - Pass Details

Date: 22 May 2019
Orbit: 408 x 418 km, 51.6° (Epoch: 19 June)

Event Time Altitude Azimuth Distance (km) Brightness Sun altitude
Rises 22:36:02 0° 263° (W) 2,353 0.4 -13.1°
Reaches altitude 10° 22:38:08 10° 266° (W) 1,493 -0.6 -13.3°
Maximum altitude 22:41:28 70° 351° (N) 449 -3.5 -13.6°
Drops below altitude 10° 22:44:50 10° 76° (ENE) 1,502 -1.1 -13.9°
Sets 22:46:59 0° 78° (ENE) 2,379 -0.1 -14.1°
Enters shadow 22:46:59 - 78° (ENE) 2,382 -0.1 -14.1°
